DELTA 1 DEB, 10766

Orbit data source: Space-Track

DELTA 1 DEB, 10766 is space debris in SSO originally from a launch on Thu, 29 Jul 1976 UTC launched from the Air Force Western Test Range (AFWTR). Debris objects in space refer to the collection of defunct objects orbiting the Earth. Examples of debris include non-operational satellites, rocket bodies, and fragments generated from explosions, collisions, or faulty payload assembly.

Loading next visibility...
Identifier
10766, 1976-077BP
Orbit
SSO
Country
Flag of USUS
Related business
Manufacturer
Unknown
Mission
Spacecraft
Bus & Motor
Unknown
Mass
Unknown
Launch date (UTC)
1976-07-29 (49 years ago)
Launch vehicle
Unknown
Launch site
Air Force Western Test Range (AFWTR)
Object type
Payload
Rocket body
Debris
Shape & HBR
Unknown shape, 0.6 m
Radar Cross Section
Medium (>0.1 m² and <1 m²)

Expand to show TLE details & history
Last TLE update: 20 hours ago

TLE from 20 hours ago
0 DELTA 1 DEB
1 10766U 76077BP  25292.29418914 -.00000027  00000-0  15676-3 0  9993
2 10766 102.3735 266.3720 0053744 324.9969 145.1814 12.31291458212706
Epoch: 2025-10-19T07:03Z
TLE epoch observation values (Epoch: 2025-10-19T07:03:37.941Z)
Latitude
66.25185°
Longitude
-17.79948°
Altitude
1,590.025 km
Speed
7.064 km/s
True Right ascension
07h 44m 29s
True Declination
66° 08' 17"
Sunlit
Object was in daylight at epoch
Visualization orbit readout
Latitude
Unknown
Longitude
Unknown
Altitude
Unknown
Speed
Unknown
Apparent Right ascension
Unknown
Apparent Declination
Unknown
Sunlit
N/A
Visualization observer readout
Local Sidereal Time
21:39:30
Azimuth
Unknown
Elevation
Unknown
Doppler factor
Unknown
Orbital elements
Apogee altitude
1,583.908 km
Perigee altitude
1,498.783 km
Semi-major axis
7,919.482 km
Eccentricity
0.00537
Inclination
102.3735°
RAAN
266.372°
Arg. of periapsis
324.9969°
True anomaly
145.53111°
Mean anomaly
145.1814°
Eccentric anomaly
145.35645°
Mean motion
3.07963 °/min
Orbital period
116.9 mins
BSTAR
0.00015676
Loading maneuver chart data...
Computing Atmospheric mass density...
Loading historical data...
Loading historical data...
Loading historical data...
Loading historical data...
Loading historical data...
Loading historical data...
Loading historical data...

Documentation

Showing up to 5 results
|